Flag for Switzerland Weather past 2 weeks in Solothurn, Solothurn, Switzerland

Now
30 °F

Chilly.


Feels Like: 30 °F
Forecast: 24 / 48 °F
Wind: 2 mph from Southwest

Location: Grenchen

Current Time: Mar 1, 2015 at 12:26:36 AM

Latest Report: Feb 28, 2015 at 11:00 PM


Visibility: N/A

Pressure: 30.14 "Hg

Humidity: 97%

Dew point: 29 °F

Location of SolothurnLocation

Historic Weather in Solothurn — Graph

°F

Solothurn temperature yesterday

Maximum temperature yesterday: 42 °F (at 4:00 PM)
Minimum temperature yesterday: 30 °F (at 11:00 PM)
Average temperature yesterday: 36 °F

Past Weeks' High & Low Weather Summary

 TemperatureHumidityPressure
High49 °F (Feb 20, 4:00 PM)100% (Feb 15, 7:00 AM)30.75 "Hg (Feb 15, 7:00 AM)
Low25 °F (Feb 20, 6:00 AM)43% (Feb 26, 4:00 PM)29.63 "Hg (Feb 21, 9:00 AM)
Average35 °F89%30.10 "Hg
* Reported Feb 13 11:00 PM — Feb 28 11:00 PM, Solothurn, Weather by CustomWeather, © 2015

Note: Actual official high and low records may vary slightly from our data, if they occured in-between our weather recording intervals... More about our weather records

Advertising

Solothurn weather history for previous 24 hours

 ConditionsComfort  
Time TempWeatherWind HumidityBarometerVisibility
11:00 PM
Sat, Feb 28
30 °FChilly.2 mph97%30.14 "HgN/A
10:00 PM31 °FChilly.1 mph96%30.15 "HgN/A
9:00 PM32 °FChilly.1 mph93%30.16 "HgN/A
8:00 PM35 °FChilly.1 mph88%30.15 "HgN/A
7:00 PM36 °FChilly.1 mph83%30.14 "HgN/A
6:00 PM40 °FQuite cool.1 mph70%30.12 "HgN/A
5:00 PM42 °FQuite cool.3 mph65%30.12 "HgN/A
4:00 PM42 °FQuite cool.3 mph65%30.14 "HgN/A
3:00 PM41 °FQuite cool.3 mph71%30.14 "HgN/A
2:00 PM41 °FQuite cool.8 mph75%30.16 "HgN/A
1:00 PM40 °FChilly.7 mph75%30.19 "HgN/A
12:00 PM41 °FQuite cool.8 mph77%30.20 "HgN/A
11:00 AM38 °FChilly.3 mph86%30.22 "HgN/A
10:00 AM36 °FChilly.5 mph94%30.23 "HgN/A
9:00 AM35 °FChilly.2 mph97%30.23 "HgN/A
8:00 AM35 °FChilly.2 mph99%30.23 "HgN/A
7:00 AM35 °FChilly.1 mph97%30.22 "HgN/A
6:00 AM35 °FChilly.2 mph98%30.21 "HgN/A
5:00 AM34 °FChilly.3 mph100%30.21 "HgN/A
4:00 AM34 °FChilly.3 mph99%30.21 "HgN/A
3:00 AM35 °FChilly.7 mph98%30.21 "HgN/A
2:00 AM35 °FChilly.6 mph98%30.22 "HgN/A
1:00 AM36 °FChilly.1 mph91%30.23 "HgN/A
12:00 AM36 °FChilly.2 mph92%30.23 "HgN/A
Weather by CustomWeather, © 2015

See weather overviewHow to use our weather pages